Starlink 30702

operational
NORAD ID: 57955 Int'l Des: 2023-148 Owner: SPXS Country: US Constellation: starlink
LEOCIRCULAR

About Starlink 30702

Description loading...

Live Position

Loading 3D Globe...

Upcoming Passes

Altitude History

Altitude vs Time

uPlot chart will show altitude changes over time

Two-Line Element Set

1 57955U 23148W 25258.00232811 .00000631 00000-0 33441-4 0 9997
2 57955 53.1601 110.2626 0001253 81.6926 278.4217 15.30196811111661
Epoch: Sep 15, 2025 • Age: 20 hours

Current Status

Altitude 492.8 km
Velocity 7.62 km/s
Sub-Earth Point -48.89°S, 110.76°E
Launch Date Sep 25, 2023
Age 1.9 years
Type internet

Technical Details

Classification Payload
Mass 730.00 kg
Dry Mass 700.00 kg
Total Mass 730.00 kg
Length 0.30 m
Diameter 4.10 m
Span 29.00 m
Shape Box + pan
Manufacturer SPXS
Bus Type Starlink V2M
Phase Status In Orbit
Owner/State SPXS/US

Large Constellations

Loading constellations...